Location: *
(56.0833°N, 10.1958°E)
Time: 10:20:54
(UTC+00:00)

Daily predictions for brighter satellites

Satellite Brightness Start Highest point End
(mag) Time Altitude Azimuth Time Altitude Azimuth Time Altitude Azimuth
SPOT 3 Rocket 3.9 18:23:10 10° SE 18:28:11 49° ENE 18:33:13 10° N
STARLINK-1123 4.1 18:25:38 10° W 18:29:40 51° S 18:33:42 10° ESE
COSMO-SKYMED 1 4.0 18:25:36 10° N 18:29:46 45° WNW 18:33:54 10° SW
NOSS 3-4 (A) 4.3 18:24:23 10° WNW 18:30:43 51° NNE 18:37:42 10° E
Cosmos 2219 Rocket 2.6 18:25:08 10° SW 18:30:47 70° NW 18:36:27 10° NNE
NOSS 3-4 (C) 4.3 18:24:28 10° WNW 18:30:48 51° NNE 18:37:49 10° E
Cosmos 1726 4.3 18:33:26 10° E 18:33:47 10° E 18:34:08 10° ENE
STARLINK-1097 4.1 18:30:34 10° W 18:34:37 50° SSW 18:38:38 10° ESE
Cosmos 1943 Rocket 2.4 18:29:44 10° NNW 18:35:12 57° NE 18:40:40 10° SE
Cosmos 292 Rocket 4.3 18:31:00 10° NNW 18:35:34 43° NE 18:40:08 10° ESE
MONITOR-E 3.7 18:36:37 10° SSE 18:39:16 85° ENE 18:41:56 10° NNW
STARLINK-1099 4.2 18:35:34 10° W 18:39:35 49° SSW 18:43:35 10° ESE
Cosmos 1980 3.7 18:34:41 10° SSW 18:40:21 72° ESE 18:46:02 10° NE
Cosmos 1766 3.2 18:36:37 10° S 18:40:36 78° E 18:44:36 10° NNE
S3M 4.1 18:36:20 10° S 18:42:43 81° E 18:49:09 10° NNE
Ariane Rocket 3.4 18:39:01 10° S 18:44:05 69° WSW 18:49:10 10° NNW
Cosmos 2084 3.5 18:39:47 10° SW 18:44:16 72° SE 18:48:44 10° NE
STARLINK-1104 4.2 18:40:33 10° W 18:44:33 48° SSW 18:48:25 11° ESE
Cosmos 1455 Rocket 3.0 18:43:17 10° S 18:47:34 66° E 18:51:56 10° NNE
STARLINK-1144 4.2 18:45:30 10° W 18:49:29 47° SSW 18:53:11 12° ESE
Cosmos 1626 Rocket 3.5 18:46:07 10° N 18:50:34 70° ENE 18:54:57 10° SSE
NOSS 2-2 (D) 4.4 18:45:54 10° NW 18:50:59 86° NE 18:57:58 10° SE
Cosmos 1626 2.2 18:49:49 10° NNW 18:53:33 81° WSW 18:57:16 10° S
SL-16 R/B 2.6 18:48:43 10° S 18:53:55 39° ESE 18:59:09 10° NE
Cosmos 2333 Rocket 3.2 18:48:44 10° WSW 18:54:18 52° NW 18:59:51 10° NNE
STARLINK-1103 4.3 18:50:28 10° W 18:54:26 45° SSW 18:57:58 13° SE
Cosmos 2084 Rocket 3.6 18:50:10 10° NW 18:54:39 89° SSW 18:58:46 12° SE
Cosmos 1437 4.1 18:52:14 10° N 18:54:41 21° ENE 18:56:20 14° ESE
SL-16 R/B 4.4 18:50:17 10° WNW 18:54:46 23° NNW 18:59:16 10° NNE
USA 186 2.5 18:53:02 10° S 18:56:27 61° WSW 18:59:48 10° NNW
STARLINK-1234 4.1 18:54:16 10° SSW 18:56:45 24° SSE 18:58:25 15° ESE
Spot 2 Rocket 4.4 18:52:55 11° ESE 18:57:15 33° ENE 19:01:49 10° N
Cosmos 1953 3.5 18:54:26 10° SE 18:57:36 23° E 19:00:48 10° NE
Cosmos 1602 Rocket 3.6 18:53:38 10° N 18:58:07 66° ENE 19:02:32 10° SSE
STARLINK-1101 4.3 18:55:28 10° W 18:59:25 44° SSW 19:02:46 14° SE
NOSS 2-1 (E) 3.1 18:56:24 10° SW 18:59:52 80° SE 19:04:01 10° NE
Aureole 3 4.4 18:58:56 10° SSE 19:02:48 35° E 19:07:40 10° NNE
ATLAS 2AS CENTAUR R/B 3.3 18:55:50 10° WNW 19:03:41 61° NNE 19:10:15 13° ESE
STARLINK-1102 4.3 19:00:26 10° W 19:04:22 43° SSW 19:07:32 15° SE
Aureole 2 Rocket 2.6 19:04:29 10° NNW 19:07:57 55° ENE 19:10:31 17° SE
H-2A R/B 2.8 19:03:18 10° S 19:08:30 56° W 19:13:36 10° NNW
STARLINK-1111 4.4 19:05:24 10° W 19:09:19 41° SSW 19:12:19 16° SE
Cosmos 2322 Rocket 4.5 19:05:33 10° WNW 19:09:59 22° NNW 19:14:23 10° NNE
Cosmos 2360 Rocket 4.3 19:06:10 10° W 19:10:57 27° NNW 19:15:44 10° NNE
Cosmos 883 Rocket 4.5 19:06:42 10° S 19:12:54 83° E 19:19:15 10° NNE
USA 234 3.7 19:07:02 10° ENE 19:13:02 37° SE 19:19:00 10° SSW
CZ-2C R/B 3.9 19:08:35 10° NNE 19:13:17 53° E 19:17:54 10° S
Terra 3.6 19:10:44 12° E 19:13:20 18° NE 19:16:28 10° N
ERBS 2.2 19:10:51 10° WSW 19:14:13 67° SSE 19:16:57 15° ENE
STARLINK-1073 4.4 19:10:23 10° W 19:14:17 40° SSW 19:17:06 17° SE
Cosmos 1544 Rocket 3.6 19:10:37 10° S 19:15:02 89° E 19:19:31 10° NNE
Cosmos 1703 4.2 19:12:05 10° N 19:15:40 31° ENE 19:17:46 19° ESE
Cosmos 1825 Rocket 3.9 19:13:10 10° N 19:17:29 46° ENE 19:20:41 17° SE
ADEOS Rocket 4.2 19:10:59 10° NNE 19:17:49 51° WNW 19:23:58 10° SW
NOSS 0 Rocket 4.3 19:11:57 10° SW 19:18:09 71° NW 19:24:21 10° NE
STARLINK-1121 4.5 19:15:22 10° W 19:19:14 38° SSW 19:21:53 18° SE
Cosmos 1980 Rocket 4.4 19:16:29 10° NW 19:20:13 18° N 19:23:57 10° NE
STARLINK-1192 4.5 19:18:12 10° SSW 19:21:42 29° SSE 19:23:24 21° ESE
COSMOS 2455 3.8 19:17:38 10° NW 19:23:18 39° NNE 19:28:01 14° E
Cosmos 2237 Rocket 2.5 19:18:27 10° SW 19:24:04 71° NW 19:29:45 10° NNE
MetOp-B 4.3 19:19:53 15° SE 19:24:16 56° ENE 19:29:32 10° N
CZ-2C R/B 2.9 19:20:15 10° NNE 19:25:15 44° E 19:30:11 10° S
Cosmos 2184 Rocket 4.0 19:19:46 10° N 19:26:07 68° ENE 19:32:13 11° SSE
Cosmos 1992 Rocket 4.0 19:20:59 10° NNW 19:26:14 85° ENE 19:30:33 15° SSE
STARLINK-1244 4.4 19:22:55 10° SW 19:26:28 30° SSE 19:28:01 23° ESE
STARLINK-1201 3.9 19:23:44 10° SW 19:26:39 30° SSE 19:27:31 26° SE
Cosmos 1758 Rocket 3.6 19:22:26 10° N 19:26:49 62° ENE 19:30:08 17° SSE
SeaSat 1 4.0 19:26:14 10° NNE 19:30:46 38° NW 19:35:18 10° WSW
STARLINK-1138 4.4 19:27:32 10° SW 19:31:08 31° SSE 19:32:32 25° ESE
Cosmos 1269 Rocket 4.0 19:26:01 10° SSW 19:31:19 85° ESE 19:36:40 10° NNE
STARLINK-1209 3.5 19:29:13 10° SW 19:31:52 32° SSE 19:32:14 31° SSE
STARLINK-1228 3.4 19:30:11 10° SW 19:32:49 32° SSE 19:33:08 31° SSE
Cosmos 1953 Rocket 4.0 19:28:48 10° N 19:33:05 45° ENE 19:35:31 23° SE
SL-24 R/B 4.1 19:30:20 10° NNE 19:35:17 75° ESE 19:39:33 10° S
STARLINK-1143 4.3 19:32:15 10° SW 19:35:53 33° SSE 19:37:08 27° ESE
Cosmos 1461 4.0 19:31:49 10° NW 19:35:55 37° NNE 19:38:46 18° E
ARGOS 4.4 19:31:39 10° SSW 19:36:45 42° W 19:41:53 10° NNW
Cosmos 1656 Rocket 3.8 19:31:58 10° NNW 19:37:39 63° NE 19:41:14 23° SE
Cosmos 2251 Rocket 4.0 19:33:22 10° S 19:38:15 37° ESE 19:43:12 10° NE
Cosmos 1470 2.9 19:40:00 10° SSW 19:43:52 73° WNW 19:47:48 10° N
Cosmos 1606 Rocket 4.1 19:43:16 25° SE 19:45:07 37° E 19:49:14 10° NNE
STARLINK-1241 4.2 19:42:35 10° SW 19:46:15 35° SSE 19:47:06 31° SE
STARLINK-1233 3.6 19:43:24 10° SW 19:46:18 35° SSE 19:46:21 35° SSE
STARLINK-1212 3.6 19:43:51 10° SW 19:46:45 35° SSE 19:46:45 35° SSE
Cosmos 2154 Rocket 4.1 19:40:40 10° N 19:47:01 64° ENE 19:51:33 20° SSE
STARLINK-1105 3.6 19:44:17 10° SW 19:47:12 35° SSE 19:47:13 35° SSE
ISS -2.4 19:44:34 10° WSW 19:47:28 27° SSW 19:48:11 24° S
STARLINK-1206 3.6 19:44:47 10° SW 19:47:38 35° SSE 19:47:38 35° SSE
STARLINK-1247 3.6 19:45:13 10° SW 19:48:03 35° SSE 19:48:03 35° SSE
Cosmos 2315 Rocket 4.3 19:42:03 10° SSW 19:48:22 74° WNW 19:54:47 10° N
STARLINK-1227 3.6 19:45:37 10° SW 19:48:30 35° SSE 19:48:30 35° SSE
ATLAS CENTAUR R/B 3.4 19:45:03 10° WNW 19:48:41 26° N 19:52:08 10° NE
STARLINK-1218 3.6 19:46:07 10° SW 19:48:55 35° SSE 19:48:55 35° SSE
STARLINK-1226 3.6 19:46:34 10° SW 19:49:23 35° SSE 19:49:23 35° SSE
Resurs 1-3 4.4 19:45:21 10° S 19:49:37 51° W 19:53:56 10° NNW
STARLINK-1254 3.6 19:46:58 10° SW 19:49:48 36° SSE 19:49:48 36° SSE
STARLINK-1215 3.6 19:47:27 10° SW 19:50:14 35° S 19:50:14 35° S
STARLINK-1231 3.6 19:47:54 10° SW 19:50:39 35° S 19:50:39 35° S
STARLINK-1239 4.1 19:47:06 10° SW 19:50:49 36° SSE 19:51:30 34° SE
ERS-1 Rocket 3.5 19:48:48 26° ESE 19:51:10 44° ENE 19:55:57 10° N
STARLINK-1232 3.6 19:48:48 10° SW 19:51:31 36° S 19:51:31 36° S
Cosmos 1758 3.7 19:47:43 10° SSW 19:51:49 68° WNW 19:55:55 10° N
STARLINK-1217 3.6 19:49:15 10° SW 19:51:58 36° S 19:51:58 36° S
STARLINK-1208 3.6 19:49:39 10° SW 19:52:25 36° S 19:52:25 36° S
STARLINK-1229 3.6 19:50:08 10° SW 19:52:49 36° S 19:52:49 36° S
USA 245 4.2 19:50:07 23° SSE 19:53:21 71° ENE 19:59:21 10° NNW
STARLINK-1271 3.6 19:50:36 10° SW 19:53:16 36° S 19:53:16 36° S
Cosmos 2369 Rocket 2.5 19:48:05 10° NW 19:53:47 66° WSW 19:57:50 19° SSE
STARLINK-1270 3.6 19:51:03 10° SW 19:53:42 36° S 19:53:42 36° S
STARLINK-1154 3.6 19:51:29 10° SW 19:54:07 36° S 19:54:07 36° S
STARLINK-1197 3.6 19:52:23 10° SW 19:54:59 36° S 19:54:59 36° S
STARLINK-1240 4.0 19:51:40 10° SW 19:55:24 38° SSE 19:55:56 36° SE
STARLINK-1189 3.6 19:52:49 10° SW 19:55:26 36° S 19:55:26 36° S
STARLINK-1187 3.5 19:53:37 10° WSW 19:56:20 38° S 19:56:20 38° S
STARLINK-1188 3.6 19:53:43 10° SW 19:56:17 36° S 19:56:17 36° S
STARLINK-1198 3.6 19:53:57 10° SW 19:56:31 36° S 19:56:31 36° S
Resurs 01 Rocket 2.1 19:53:05 13° S 19:56:57 59° WSW 20:01:20 10° NNW
STARLINK-1235 3.4 19:54:16 10° WSW 19:57:05 40° S 19:57:05 40° S
SPOT 5 3.3 19:56:05 29° ESE 19:57:31 38° ENE 20:01:33 10° N
Cosmos 2344 4.5 19:49:44 10° WNW 19:57:31 55° N 20:07:33 10° ENE
Cosmos 2263 4.2 19:51:53 10° NW 19:57:32 78° WSW 20:01:00 24° SSE
NOSS 2-1 (C) 4.2 19:54:37 10° W 19:58:05 47° NNW 20:02:17 10° NE
STARLINK-1199 3.6 19:55:38 10° SW 19:58:13 36° S 19:58:13 36° S
STARLINK-67 3.8 19:56:24 10° WSW 19:58:04 29° SW 19:58:04 29° SW
STARLINK-1191 3.7 19:56:06 10° SW 19:58:39 36° S 19:58:39 36° S
STARLINK-1210 3.7 19:56:32 10° SW 19:59:04 36° S 19:59:04 36° S
STARLINK-1221 3.7 19:57:00 10° SW 19:59:33 36° S 19:59:33 36° S
STARLINK-1216 4.0 19:56:15 10° SW 20:00:00 39° SSE 20:00:23 38° SE
STARLINK-1219 3.7 19:57:27 10° SW 19:59:58 36° S 19:59:58 36° S
STARLINK-1222 3.7 19:57:52 10° WSW 20:00:23 36° S 20:00:23 36° S
STARLINK-1211 3.7 19:58:20 10° WSW 20:00:49 36° S 20:00:49 36° S
STARLINK-1214 3.7 19:58:47 10° WSW 20:01:15 36° SSW 20:01:15 36° SSW
STARLINK-1245 3.7 19:59:17 10° WSW 20:01:40 35° SSW 20:01:40 35° SSW
NOSS 2-1 (D) 4.3 19:58:51 10° W 20:02:18 45° NNW 20:06:31 10° NE
STARLINK-1238 3.7 19:59:41 10° WSW 20:02:08 35° SSW 20:02:08 35° SSW
Cosmos 1908 3.7 20:02:47 38° E 20:02:54 38° E 20:06:32 10° NNE
STARLINK-1205 3.8 20:00:38 10° WSW 20:02:59 35° SSW 20:02:59 35° SSW
STARLINK-1204 3.8 20:01:03 10° WSW 20:03:23 34° SSW 20:03:23 34° SSW
STARLINK-1237 3.9 20:00:52 10° SW 20:04:38 40° SSE 20:04:52 40° SSE
Cosmos 1726 2.0 20:06:30 30° S 20:08:16 78° E 20:12:02 10° NNE
Cosmos 921 Rocket 3.6 20:04:25 10° NNW 20:08:24 39° NE 20:09:21 34° E
Landsat 7 3.7 20:06:34 32° SSE 20:08:48 76° ENE 20:13:35 10° NNW
STARLINK-1202 3.9 20:05:26 10° SW 20:09:15 42° SSE 20:09:18 42° SSE
SL-8 Rocket 4.5 20:03:17 10° N 20:09:18 45° ENE 20:11:56 30° ESE
MOS 1 Rocket 3.6 20:05:10 10° NNE 20:10:18 85° WNW 20:15:40 10° SSW
Nadezhda 1 Rocket 4.0 20:06:17 16° S 20:11:21 63° E 20:17:40 10° NNE
SAR-Lupe-2 3.4 20:07:50 10° NNE 20:11:26 69° ESE 20:12:21 46° S
Cosmos 2228 3.0 20:11:03 37° SSE 20:12:31 60° E 20:16:47 10° NNE
CZ-4C R/B 3.5 20:07:32 10° WNW 20:13:17 45° N 20:20:09 10° ENE
STARLINK-1246 3.9 20:10:30 10° SW 20:14:18 43° SSE 20:14:18 43° SSE
Cosmos 2219 Rocket 4.4 20:11:02 10° W 20:15:44 26° NNW 20:20:26 10° NNE
Cosmos 1943 Rocket 3.3 20:13:45 10° NW 20:18:48 37° WSW 20:22:52 15° S
Cosmos 1943 3.5 20:19:28 33° SSE 20:21:20 43° ESE 20:26:42 10° NE
Cosmos 1340 Rocket 3.8 20:22:10 32° ENE 20:22:10 32° ENE 20:25:10 10° NNE
Cosmos 2058 4.1 20:18:35 10° N 20:22:09 27° ENE 20:22:13 27° ENE
NOSS 3-4 (A) 3.7 20:15:29 10° NW 20:22:15 88° SW 20:25:57 33° SE
NOSS 3-4 (C) 3.7 20:15:35 10° NW 20:22:21 88° SW 20:26:03 33° SE
STARLINK-1224 4.0 20:19:18 10° WSW 20:22:45 44° S 20:22:45 44° S
Cosmos 2058 Rocket 3.3 20:24:10 46° ESE 20:24:34 48° E 20:28:55 10° NNE
Cosmos 1328 4.2 20:21:16 10° NNW 20:25:15 62° W 20:26:44 35° SSW
Cosmos 1437 4.2 20:25:01 10° NNW 20:27:45 31° W 20:28:32 26° SW
STARLINK-1225 4.0 20:23:58 10° WSW 20:27:17 43° SSW 20:27:17 43° SSW
STARLINK-1203 4.0 20:25:37 10° WSW 20:28:44 42° SSW 20:28:44 42° SSW
Mayak 1.0 20:29:25 10° NE 20:30:20 13° ENE 20:30:20 13° ENE
STARLINK-1230 4.1 20:28:35 10° WSW 20:31:44 42° SSW 20:31:44 42° SSW
Cosmos 1953 3.3 20:29:57 10° SW 20:33:47 46° WNW 20:37:39 10° N
SPOT 1/Viking Rocket 3.6 20:32:06 35° S 20:34:22 79° WSW 20:39:38 10° NNW
Meteor 2-10 4.3 20:29:11 10° SSW 20:34:34 76° WNW 20:40:12 10° NNE
NOSS 3-3 (A) 4.1 20:29:47 10° SSW 20:35:31 50° SE 20:42:03 10° NE
NOSS 3-3 (C) 4.1 20:29:54 10° SSW 20:35:38 49° SE 20:42:08 10° NE
Spot 2 Rocket 4.1 20:33:06 24° S 20:36:04 54° W 20:41:07 10° NNW
STARLINK-1243 4.2 20:33:15 10° WSW 20:36:16 40° SSW 20:36:16 40° SSW
SL-16 R/B 2.9 20:32:22 10° SW 20:37:56 56° NW 20:43:32 10° NNE
Cosmos 1697 Rocket 4.2 20:36:32 10° NNW 20:41:21 27° NNE 20:44:20 18° ENE
STARLINK-1236 4.3 20:37:54 10° WSW 20:40:46 38° SW 20:40:46 38° SW
IGS 5A 3.9 20:42:14 41° SSW 20:43:22 57° WSW 20:47:31 10° NNW
Cosmos 1076 Rocket 3.9 20:44:32 10° N 20:48:32 47° ENE 20:48:32 47° ENE
Terra 1.7 20:49:37 61° SE 20:50:24 77° ENE 20:55:11 10° NNW
ERBS 2.9 20:47:11 10° W 20:49:56 54° WNW 20:49:56 54° WNW
Cosmos 2341 Rocket 4.0 20:44:46 10° NNW 20:51:09 85° W 20:53:51 38° S
CARTOSAT-1 3.5 20:50:52 63° S 20:51:29 78° WSW 20:55:51 10° NNW
ATLAS 2AS CENTAUR R/B 3.0 20:47:16 10° NW 20:54:57 66° SW 20:57:42 40° SSE
Cosmos 1726 Rocket 3.8 20:55:08 39° SW 20:56:39 66° WNW 21:01:06 10° N
USA 234 3.1 20:50:08 10° ENE 20:56:42 76° SSE 21:03:16 10° WSW
Cosmos 1603 3.5 20:53:45 10° SSW 20:59:24 85° SE 21:05:04 10° NE
Cosmos 407 Rocket 3.8 21:04:45 47° E 21:04:45 47° E 21:08:59 10° NE
CZ-2C R/B 3.9 21:00:44 10° N 21:05:33 39° WNW 21:10:20 10° SW
Cosmos 1980 Rocket 3.9 21:01:33 10° NNW 21:06:12 26° NNE 21:09:09 17° ENE
RESURS DK-1 4.0 21:04:01 10° NNW 21:07:31 25° NNE 21:08:08 24° NE
Cosmos 2151 4.1 21:04:14 10° N 21:07:30 32° NE 21:07:30 32° NE
Cosmos 2237 Rocket 4.3 21:04:26 10° W 21:09:07 26° NNW 21:13:51 10° NNE
COSMOS 2455 2.8 21:03:47 10° NW 21:09:51 86° SW 21:11:09 58° SSE
Aureole 1 Rocket 4.2 21:07:14 34° S 21:10:47 68° ESE 21:17:01 10° NNE
Iridium 4 Rocket 3.0 21:07:21 10° N 21:11:53 85° NE 21:11:53 85° NE
Cosmos 1892 3.5 21:09:00 10° N 21:11:59 45° NNE 21:11:59 45° NNE
Cosmos 1461 3.1 21:10:54 10° NW 21:15:09 72° WSW 21:15:09 72° WSW
Meteor 2-12 Rocket 4.3 21:12:25 10° N 21:18:36 77° ENE 21:19:45 60° SE
Cosmos 2218 Rocket 3.9 21:13:41 10° NNW 21:19:52 83° W 21:21:26 54° S
Cosmos 2251 Rocket 4.3 21:15:13 10° SW 21:20:27 51° NW 21:25:44 10° NNE
USA 32 4.1 21:16:49 10° N 21:22:03 62° ENE 21:22:11 62° E
Cosmos 614 Rocket 3.8 21:27:59 81° S 21:28:13 85° ESE 21:33:29 10° NNE
ATLAS CENTAUR R/B 2.9 21:24:58 10° NW 21:28:37 29° NNE 21:29:15 28° NNE
ERS-1 Rocket 4.0 21:28:47 32° SW 21:30:04 38° W 21:34:47 10° NNW
In-Cosmos 22 Rocket 4.3 21:28:28 10° NNW 21:34:14 72° W 21:35:12 60° SSW
Cosmos 2181 Rocket 3.9 21:33:10 54° SSW 21:34:43 88° WNW 21:41:00 10° NNE
SPOT 5 3.7 21:35:18 35° WSW 21:35:40 35° W 21:39:43 10° NNW
Cosmos 2369 Rocket 4.5 21:33:39 10° WNW 21:36:46 15° W 21:39:39 11° SW
Meteor 2-3 Rocket 4.4 21:33:50 10° N 21:39:20 41° ENE 21:39:49 40° ENE
Cosmos 1300 3.9 21:45:05 41° NNW 21:45:05 41° NNW 21:47:50 10° N
Cosmos 921 Rocket 4.3 21:42:51 10° NW 21:46:08 32° W 21:46:08 32° W
Cosmos 1825 3.7 21:43:56 10° N 21:46:13 33° N 21:46:13 33° N
Cosmos 1656 3.7 21:42:39 10° NNW 21:48:24 70° NE 21:48:47 67° E
ATLAS 5 CENTAUR R/B 4.3 21:57:41 11° ENE 21:57:41 11° ENE 21:57:52 10° ENE
Cosmos 2369 4.1 21:47:59 10° NNW 21:53:33 52° NE 21:54:13 49° ENE
Cosmos 1340 Rocket 4.3 21:57:44 32° WNW 21:57:56 32° WNW 22:01:38 10° N
Okean 3 Rocket 4.2 21:53:40 10° NNW 21:57:05 53° N 21:57:05 53° N
Cosmos 2058 4.2 21:55:20 10° NNW 21:58:25 37° WNW 21:58:25 37° WNW
ALOS 2 3.5 22:03:08 43° NNE 22:03:08 43° NNE 22:06:28 10° N
CZ-4C R/B 3.1 21:56:31 10° WNW 22:02:55 59° NNE 22:06:33 31° E
Cosmos 1943 3.9 22:01:06 17° WSW 22:05:23 52° NW 22:10:58 10° NNE
Cosmos 1763 Rocket 3.6 22:02:22 10° NNW 22:07:11 72° WNW 22:07:11 72° WNW
Cosmos 1570 Rocket 4.1 22:02:16 10° NNW 22:07:24 76° NNE 22:07:24 76° NNE
Mayak -0.2 22:04:02 10° NNE 22:06:55 43° N 22:06:55 43° N
Cosmos 1190 Rocket 4.2 22:08:50 69° WNW 22:09:02 70° WNW 22:14:22 10° NNE
ASTEX 1 3.6 22:09:59 68° NW 22:09:59 68° NW 22:14:32 10° N
Cosmos 1818 3.7 22:11:44 67° NE 22:11:44 67° NE 22:16:29 10° NE
Nadezhda 3 Rocket 4.0 22:13:04 69° E 22:13:08 69° E 22:19:26 10° NNE
Cosmos 2344 4.2 22:04:41 10° NW 22:13:20 76° NNE 22:20:03 29° ESE
Cosmos 1535 Rocket 4.4 22:12:45 10° N 22:18:54 73° ENE 22:19:03 72° E
SL-16 R/B 4.5 22:18:49 10° WNW 22:23:17 23° NNW 22:27:46 10° NNE
Thor Agena Rocket 3.7 22:18:12 10° NNE 22:22:41 69° N 22:22:41 69° N
Cosmos 1697 Rocket 2.7 22:20:31 10° NNW 22:26:03 75° NNE 22:26:03 75° NNE
NOSS 3-3 (A) 4.4 22:20:09 10° WSW 22:26:21 66° NNW 22:33:29 10° NE
NOSS 3-3 (C) 4.4 22:20:15 10° WSW 22:26:26 67° NNW 22:33:35 10° NE
SL-16 R/B 3.8 22:22:00 10° NNW 22:26:57 29° NNE 22:29:37 21° ENE
Terra 3.8 22:28:29 20° W 22:28:43 20° W 22:32:13 10° NW
Cosmos 2208 Rocket 4.3 22:30:12 10° NNW 22:34:31 61° NW 22:34:31 61° NW
Cosmos 676 Rocket 4.3 22:36:07 66° NNW 22:36:07 66° NNW 22:41:03 10° NNE
Cosmos 841 Rocket 3.8 22:31:11 10° NNW 22:35:41 64° NW 22:35:41 64° NW
Cosmos 1140 Rocket 4.1 22:36:41 51° WNW 22:37:00 52° NW 22:42:05 10° NNE
USA 234 3.2 22:33:18 10° E 22:39:52 83° N 22:46:26 10° W
Cosmos 2360 4.3 22:34:30 10° NNW 22:40:00 72° NNE 22:40:00 72° NNE
Cosmos 2221 4.4 22:43:19 25° NE 22:43:19 25° NE 22:45:29 10° NNE
Cosmos 2322 Rocket 3.8 22:37:02 10° NNW 22:42:02 30° NNE 22:44:37 21° ENE
Nimbus 7 Rocket 4.5 22:36:51 10° NNE 22:42:12 67° ENE 22:42:12 67° ENE
Cosmos 2360 Rocket 4.2 22:38:25 10° NNW 22:42:56 24° NNE 22:47:26 10° ENE
Cosmos-2242 4.3 22:44:42 39° N 22:44:42 39° N 22:47:35 10° N
Cosmos 540 Rocket 3.9 22:38:18 10° NNW 22:42:32 58° NW 22:42:32 58° NW
ATLAS 2AS CENTAUR R/B 4.3 22:39:19 10° WNW 22:44:35 21° WSW 22:45:08 21° WSW
RESURS DK-1 4.1 22:41:51 10° NW 22:44:01 30° NW 22:44:01 30° NW
Cosmos 1821 Rocket 4.3 22:40:23 10° NNW 22:46:30 54° W 22:46:52 53° WSW
Cosmos 1980 Rocket 2.3 22:45:34 10° NNW 22:50:54 68° NNE 22:50:54 68° NNE
COSMOS 2455 4.4 22:50:25 10° WNW 22:54:18 23° W 22:54:18 23° W
Cosmos 1455 4.4 23:00:00 25° NNW 23:00:00 25° NNW 23:01:55 10° N
Cosmos 2278 3.8 22:54:09 10° NW 22:59:11 71° NNW 22:59:11 71° NNW
SL-24 R/B - RUBIN 2 4.3 23:04:15 83° NNW 23:04:15 83° NNW 23:10:43 10° NE
Cosmos 1605 Rocket 3.9 22:58:50 10° NNW 23:04:45 82° WNW 23:04:45 82° WNW
COSMOS 2406 3.8 23:07:44 48° ENE 23:07:44 48° ENE 23:12:03 10° NE
Cosmos 1934 Rocket 4.2 23:01:48 10° NNW 23:08:00 59° W 23:08:00 59° W
ATLAS CENTAUR R/B 3.6 23:04:03 10° NW 23:05:26 20° NW 23:05:26 20° NW
Cosmos 2173 Rocket 4.4 23:04:25 10° N 23:10:23 51° ENE 23:10:40 51° E
Cosmos 2082 Rocket 3.6 23:15:19 28° ENE 23:15:19 28° ENE 23:18:44 10° NE
Meteor 2-10 Rocket 4.4 23:22:51 43° WNW 23:22:51 43° WNW 23:27:42 10° N
Meteor 2-3 Rocket 4.4 23:17:09 10° NNW 23:22:06 45° WNW 23:22:06 45° WNW
SL-16 R/B 3.7 23:21:37 28° E 23:23:50 36° NE 23:29:25 10° N
Cosmos 1339 Rocket 4.4 23:27:03 88° ENE 23:27:03 88° ENE 23:33:28 10° NNE
ATLAS 5 CENTAUR R/B 2.7 23:39:11 46° NNE 23:39:11 46° NNE 23:43:01 10° NE
SME Rocket 4.0 23:33:22 10° NNE 23:38:01 57° NNE 23:38:01 57° NNE
NOSS 2-1 (C) 4.5 23:36:24 10° NW 23:40:28 55° NNE 23:40:28 55° NNE
Mayak 1.3 23:40:48 10° NNW 23:43:09 15° NW 23:43:29 15° WNW
Cosmos 1833 Rocket 3.0 23:45:09 57° ENE 23:45:09 57° ENE 23:49:49 10° NE
NOSS 2-1 (D) 4.5 23:40:35 10° NW 23:44:34 56° N 23:44:34 56° N
Cosmos 2219 Rocket 4.3 23:43:01 10° NNW 23:47:38 25° NNE 23:52:13 10° E
CZ-4C R/B 2.8 23:45:03 10° NW 23:51:42 69° SW 23:51:42 69° SW
CZ-2D R/B 3.9 23:49:45 10° NE 23:53:52 21° E 23:54:16 21° E
